Location: Naloco
(16.5478°S, 37.1017°E)
Time: 02:44:45
(UTC+00:00)

MOS 1 Rocket - Pass Details

Date: 13 August 2020
Orbit: 614 x 830 km, 97.4° (Epoch: 23 September)

Event Time Altitude Azimuth Distance (km) Brightness Sun altitude
Rises 16:00:59 0° 23° (NNE) 3,203 6.6 -9.8°
Reaches altitude 10° 16:03:24 10° 29° (NNE) 2,250 5.8 -10.4°
Maximum altitude 16:08:08 48° 102° (ESE) 930 3.5 -11.5°
Drops below altitude 10° 16:12:39 10° 176° (S) 2,138 5.7 -12.5°
Sets 16:14:53 0° 182° (S) 3,027 6.5 -13.1°
